星链-3194 (STARLINK-3194 )

导读 | 豆包AI

STARLINK-3194是美国SpaceX星链互联网项目中的一颗卫星,于2021年12月2日发射。星链项目旨在构建全球卫星互联网星座,为全球提供低延迟、高速率的互联网服务,该卫星入轨后参与组网,助力实现全球覆盖的通信网络布局,服务偏远地区及网络基础设施薄弱区域的互联网接入需求。

Basic Information
目录编号:
49758
目录名称:
STARLINK-3194
国际标识:
2021-115AL
轨道中心:
EARTH
卫星名称:
星链-3194
卫星全名:
星链-3194 (STARLINK-3194 )
卫星状态:
在轨 (已飞行1610 天)
发射日期:
2021-12-02 UTC
国别 :
美国 (US)
星等 :
--
Orbit Information
数据来源 国际轨道数据 AOE轨道数据
星历时间 2026-04-30T23:02:23+0800
5小时前
查看轨道信息
2026-04-30T08:00:00+0800
20小时前
查看轨道信息
半长轴 6917.873km 6917.899km
偏心率 0.0001323 0.0000929
轨道倾角 53.217° 53.216°
近地点辐角 101.067° 71.768°
升交点赤经 265.965° 268.782°
平近点角 259.048° 122.548°
近地点 538.82km 539.119km
远地点 540.652km 540.405km
周期 95.437分钟 95.438分钟
每日圈数 15.088427 15.08834
Detailed Information
固有亮度:
5
最大亮度:
2.5
卫星平台:
Starlink v1.5
覆盖范围:
全球
运营商:
太空探索技术公司
运营商所在国:
美国
制造商(研发单位):
太空探索技术公司
制造商所在国:
美国
使用方式:
暂无
Satellite Introduction
星链(Starlink)计划是由太空探索技术公司(SpaceX)提出的一个巨型低轨卫星互联网星座项目,计划在2019年至2024年间在太空搭建由约1.2万颗卫星组成的“星链”网络,其中1584颗将部署在地球上空550千米处的近地轨道,并从2020年开始工作。该卫星仍在工作。
2D Orbit Map
3D Orbit Map
Orbit Altitude Analysis Chart
Orbit Inclination Analysis Chart
Orbit Comprehensive Analysis Chart
View Comprehensive Chart